Flag for Germany Weather past 2 weeks in Offenbach, Hesse, Germany

Now
61 °F

Broken clouds.


Feels Like: 61 °F
Forecast: 51 / 64 °F
Wind: 8 mph from Southwest

Location: Frankfurt-M-Flughafen Airport

Current Time: May 29, 2015 at 7:17:07 PM

Latest Report: May 29, 2015 at 6:50 PM


Visibility: N/A

Pressure: 29.80 "Hg

Humidity: 83%

Dew point: 55 °F

Location of OffenbachLocation

Historic Weather in Offenbach — Graph

°F

Offenbach temperature yesterday

Maximum temperature yesterday: 70 °F (at 2:50 PM)
Minimum temperature yesterday: 39 °F (at 2:20 AM)
Average temperature yesterday: 57 °F

Past Weeks' High & Low Weather Summary

 TemperatureHumidityPressure
High73 °F (May 18, 3:20 PM)94% (May 25, 6:20 AM)30.33 "Hg (May 25, 6:20 AM)
Low39 °F (May 22, 4:50 AM)23% (May 18, 3:20 PM)29.68 "Hg (May 18, 7:20 PM)
Average58 °F60%30.05 "Hg
* Reported May 14 6:20 PM — May 29 6:20 PM, Offenbach, Weather by CustomWeather, © 2015

Note: Actual official high and low records may vary slightly from our data, if they occured in-between our weather recording intervals... More about our weather records

Advertising

Offenbach weather history for previous 24 hours

 ConditionsComfort  
Time TempWeatherWind HumidityBarometerVisibility
6:20 PM
Fri, May 29
61 °FScattered showers. Broken clouds.8 mph88%29.80 "HgN/A
5:50 PM61 °FScattered showers. Broken clouds.9 mph83%29.80 "HgN/A
5:20 PM59 °FBroken clouds.7 mph88%29.80 "HgN/A
4:50 PM59 °FBroken clouds.7 mph88%29.80 "HgN/A
4:20 PM57 °FRain showers. Broken clouds.9 mph88%29.83 "Hg3 mi
3:50 PM63 °FSprinkles. Partly sunny.10 mph59%29.83 "HgN/A
3:20 PM64 °FScattered showers. Partly sunny.13 mph56%29.83 "HgN/A
2:50 PM64 °FScattered showers. Broken clouds.12 mph52%29.83 "HgN/A
2:20 PM66 °FScattered showers. Broken clouds.13 mph49%29.83 "HgN/A
1:50 PM64 °FScattered showers. Broken clouds.10 mph49%29.83 "HgN/A
1:20 PM68 °FBroken clouds.10 mph46%29.86 "HgN/A
12:50 PM66 °FBroken clouds.9 mph46%29.86 "HgN/A
12:20 PM64 °FBroken clouds.12 mph46%29.89 "HgN/A
11:50 AM64 °FBroken clouds.14 mph46%29.89 "HgN/A
11:20 AM66 °FBroken clouds.13 mph46%29.89 "HgN/A
10:50 AM63 °FBroken clouds.12 mph52%29.89 "HgN/A
10:20 AM63 °FPartly sunny.14 mph56%29.89 "HgN/A
9:50 AM61 °FPartly sunny.13 mph59%29.92 "HgN/A
9:20 AM59 °FPartly sunny.8 mph63%29.92 "HgN/A
8:50 AM61 °FPartly sunny.7 mph59%29.92 "HgN/A
8:20 AM57 °FPartly sunny.7 mph67%29.92 "HgN/A
7:50 AM57 °FPartly sunny.7 mph63%29.92 "HgN/A
7:20 AM55 °FPassing clouds.3 mph72%29.92 "HgN/A
6:50 AM54 °FSunny.2 mph77%29.92 "Hg10 mi
6:20 AM52 °FClear.5 mph82%29.92 "Hg10 mi
5:50 AM52 °FClear.5 mph82%29.95 "Hg10 mi
5:20 AM50 °FClear.3 mph88%29.95 "Hg10 mi
4:50 AM50 °FPassing clouds.3 mph88%29.95 "HgN/A
4:20 AM50 °FPassing clouds.3 mph88%29.95 "HgN/A
3:50 AM52 °FClear.5 mph82%29.95 "Hg10 mi
3:20 AM52 °FClear.3 mph82%29.95 "Hg10 mi
2:50 AM52 °FPassing clouds.2 mph82%29.95 "HgN/A
2:20 AM52 °FPassing clouds.2 mph82%29.95 "HgN/A
1:50 AM54 °FClear.5 mph77%29.98 "Hg10 mi
1:20 AM55 °FClear.5 mph67%29.95 "Hg10 mi
12:50 AM54 °FClear.6 mph72%29.95 "Hg10 mi
12:20 AM55 °FClear.3 mph72%29.98 "Hg10 mi
11:50 PM
Thu, May 28
55 °FClear.2 mph72%29.95 "Hg10 mi
11:20 PM59 °FClear.6 mph63%29.95 "Hg10 mi
10:50 PM59 °FPassing clouds.7 mph63%29.95 "HgN/A
10:20 PM63 °FPassing clouds.7 mph56%29.95 "HgN/A
9:50 PM63 °FBroken clouds.10 mph56%29.95 "HgN/A
9:20 PM64 °FPassing clouds.9 mph52%29.95 "HgN/A
8:50 PM66 °FSunny.10 mph49%29.92 "Hg10 mi
8:20 PM66 °FSunny.14 mph49%29.92 "Hg10 mi
7:50 PM66 °FPassing clouds.9 mph52%29.92 "HgN/A
7:20 PM68 °FPassing clouds.15 mph46%29.92 "HgN/A
Weather by CustomWeather, © 2015

See weather overviewHow to use our weather pages